Location: St. Louis
(38.6270°N, 90.1994°W)
Time: 05:43:36
(UTC-06:00)

Tiros 1 - Pass Details

Date: 30 November 2021
Orbit: 630 x 663 km, 48.4° (Epoch: 20 January)

Event Time Altitude Azimuth Distance (km) Brightness Sun altitude
Rises 19:14:23 0° 229° (SW) 2,911 11.3 -29.6°
Reaches altitude 10° 19:16:42 10° 227° (SW) 2,009 10.3 -30.0°
Enters shadow 19:19:02 30° 220° (SW) 1,150 8.7 -30.5°
